星链-2414 (STARLINK-2414 )

导读 | 星芒AI

STARLINK-2414 是 SpaceX Starlink 卫星互联网项目中的一颗低轨通信卫星。该卫星属于 Starlink 二代星座计划的一部分,旨在提供更高速度、更低延迟的全球宽带服务。它运行在约 550 公里的轨道高度,配备先进通信设备,支持全球用户接入互联网。STARLINK-2414 的发射和运行有助于增强 Starlink 网络的覆盖能力与稳定性,特别是在偏远和网络基础设施薄弱的地区。

基本信息
目录编号:
48095
目录名称:
STARLINK-2414
国际标识:
2021-027D
轨道中心:
EARTH
卫星名称:
星链-2414
卫星全名:
星链-2414 (STARLINK-2414 )
卫星状态:
在轨 (已飞行1716 天)
发射日期:
2021-04-07 UTC
国别 :
美国 (US)
星等 :
--
轨道信息
数据来源 国际轨道数据 AOE轨道数据
星历时间 2025-12-17T13:44:07+0800
21小时前
查看轨道信息
2025-12-13T22:00:00+0800
4天前
查看轨道信息
半长轴 6925.362km 6925.341km
偏心率 0.0001471 0.0001334
轨道倾角 53.054° 53.051°
近地点辐角 89.938° 78.403°
升交点赤经 181.754° 198.166°
平近点角 270.178° 246.148°
近地点 546.208km 546.282km
远地点 548.246km 548.13km
周期 95.592分钟 95.592分钟
每日圈数 15.063958 15.064025
详细信息
固有亮度:
5
最大亮度:
2.5
卫星平台:
Starlink V1.0
覆盖范围:
全球
运营商:
太空探索技术公司
运营商所在国:
美国
制造商(研发单位):
太空探索技术公司
制造商所在国:
美国
使用方式:
暂无
卫星简介
星链(Starlink)计划是由太空探索技术公司(SpaceX)提出的一个巨型低轨卫星互联网星座项目,计划在2019年至2024年间在太空搭建由约1.2万颗卫星组成的“星链”网络,其中1584颗将部署在地球上空550千米处的近地轨道,并从2020年开始工作。该卫星仍在工作。
2D轨道图
3D轨道图
轨道高度分析图
轨道倾角分析图
轨道综合分析图
查看轨道综合分析图